Weather Roundup
Issued by NWS Chicago, IL

Home | Current Version | Previous Version | Text Only | Print | Product List | Glossary Off
Versions: 1 2 3 4 5 6 7 8 9 10 11 12 13 14 15 16 17 18 19 20 21 22 23 24 25 26 27 28 29 30 31 32 33 34 35 36 37 38 39 40 41 42 43 44 45 46 47 48 49 50

000
NZUS59 KLOT 261408
HRRLOT

CHICAGO AREA WEATHER ROUNDUP
NATIONAL WEATHER SERVICE CHICAGO/ROMEOVILLE IL
900 AM CDT THU APR 26 2018

NOTE: "FAIR" INDICATES FEW OR NO CLOUDS BELOW 12,000 FEET WITH NO
SIGNIFICANT WEATHER AND/OR OBSTRUCTIONS TO VISIBILITY.

* THESE STATIONS ARE NOT UNDER NWS QUALITY CONTROL. THEY ALSO MAY NOT
  REPORT WEATHER SUCH AS PRECIPITATION OR FOG.

ILZ005-006-012>014-019>023-261500-
NORTHEAST ILLINOIS

CITY           SKY/WX    TMP DP  RH WIND       PRES   REMARKS
OHARE            N/A     49  29  46 CALM      29.96S
MIDWAY           N/A     50  31  48 CALM      29.97S
AURORA           N/A     50  34  54 CALM      29.97S
LANSING*         N/A     47  36  66 CALM      29.97F
JOLIET*          N/A     50  33  52 CALM      29.97S
WAUKEGAN         N/A     48  33  56 CALM      29.96S
DUPAGE AIRPORT   N/A     48  33  56 CALM      29.96S
WHEELING         N/A     49  31  49 CALM      29.98S
KANKAKEE*        N/A     48  33  55 CALM      29.99S
MORRIS*          N/A     48  32  55 CALM      29.97S
LEWIS AIRPORT*   N/A     48  32  53 CALM      29.97F
NORTHERLY ISL    N/A     46  30  54 NE3         N/A
$$

WIZ051-052-058>065-066-070>072-261500-
SOUTHEAST WISCONSIN

CITY           SKY/WX    TMP DP  RH WIND       PRES   REMARKS
MILWAUKEE      PTSUNNY   49  33  54 SW5       29.95F
KENOSHA*         N/A     49  33  54 S5        29.96F
RACINE*          N/A     49  33  54 SW6       29.97F
BURLINGTON       N/A     48  34  58 S3        29.95F
WAUKESHA       SUNNY     48  34  57 SW5       29.95F
WEST BEND        N/A     50  32  50 SW7       29.93F
$$

INZ001>003-010>013-019-020-261500-
NORTHWEST INDIANA

CITY           SKY/WX    TMP DP  RH WIND       PRES   REMARKS
GARY*          SUNNY     46  30  53 NE9       29.98S
MICHIGAN CITY* NOT AVBL
RENSSELAER*    NOT AVBL
VALPARAISO       N/A     50  39  66 NE3       29.97R
$$

LMZ740>746-261500-
SOUTHERN LAKE MICHIGAN

STATION/POSITION TIME  SKY/WX   TEMP WIND        PRES    VSBY
                                AIR  DIR/SP/G
                 (UTC)          (F)  (DEG/KT/KT) (MB)    (MI)
HARRISON CRIB    1340            42   30/  3/  3   N/A
BURNHAM HARBOR   1400            46   70/  3/  5   N/A
CALUMET HARBOR   1342            45   30/  5/  7 1014.5R
BURNS HARBOR     1340            40   20/  6/  8 1015.6S
MICHIGAN CITY    1340            40   20/  6/  6   N/A
$$

ABBREVIATIONS USED IN REMARKS
   TC - TEMPERATURE IN CELSIUS
  WCI - WIND CHILL INDEX
   HX - HEAT INDEX
  VSB - VISIBILITY
$$




USA.gov is the U.S. government's official web portal to all federal, state and local government web resources and services.